Location: Saratoga Springs
(43.0831°N, 73.7850°W)
Time: 10:54:29
(UTC-04:00)

Vanguard 1 Rocket - Pass Details

Date: 18 April 2024
Orbit: 651 x 4220 km, 34.3° (Epoch: 19 May)

Event Time Altitude Azimuth Distance (km) Brightness Sun altitude
Rises 01:23:18 0° 272° (W) 4,755 11.0 -35.5°
Reaches altitude 10° 01:26:17 10° 262° (W) 4,153 10.6 -35.4°
Enters shadow 01:26:24 10° 262° (W) 4,132 10.6 -35.4°
Exits shadow 01:54:08 - 148° (SSE) 6,943 11.5 -34.2°
Sets 02:00:39 0° 142° (SE) 8,229 12.0 -33.8°
